Location: Czu?�w
(50.1404°N, 18.9919°E)
Time: 12:05:49
(UTC+00:00)

Cosmos 2297 Rocket - Pass Details

Date: 27 October 2020
Orbit: 838 x 845 km, 71.0° (Epoch: 24 November)

Event Time Altitude Azimuth Distance (km) Brightness Sun altitude
Rises 18:01:26 0° 323° (NW) 3,415 6.0 -25.0°
Reaches altitude 10° 18:04:15 10° 311° (NW) 2,475 5.4 -25.4°
Maximum altitude 18:08:49 26° 257° (WSW) 1,620 4.2 -26.1°
Drops below altitude 10° 18:13:22 10° 203° (SSW) 2,459 4.7 -26.8°
Sets 18:16:10 0° 191° (S) 3,388 5.3 -27.3°
